Terminal Aerodrome Forecast
Issued by NWS

Home | Current Version | Previous Version | Graphics & Text | Print | Product List | Glossary On
Versions: 1 2 3 4 5 6 7 8 9 10 11 12 13 14 15 16 17 18 19 20
000
FTUS42 KMHX 010737 AAA
TAFOAJ
TAF AMD
KOAJ 010737Z 0108/0206 00000KT 3SM BR BKN007 BKN015
     FM011000 21006KT P6SM SCT030
     FM020000 17006KT P6SM SKC
      AMD LTD TO CLD VIS AND WIND=

USA.gov is the U.S. government's official web portal to all federal, state and local government web resources and services.